User: anonymous   Login
Location: Pcim
(49.7500°N, 19.9670°E)
Time: 01:04:51
(UTC+02:00)
Language:

ITUPSAT 1 - Orbit

View from above orbital plane
View from above orbital plane
View from above satellite
View from above satellite

Ground track
Ground track

The orbit data is extracted from the following two-line orbital elements,

1 35935U 09051E   24115.57349829  .00002763  00000-0  61709-3 0  9994
2 35935  98.4809 358.5953 0008663 135.6826 224.5067 14.57575451774454
Epoch (UTC): 24 April 2024 13:45:50
Eccentricity: 0.0008663
inclination: 98.4809°
perigee height: 695 km
apogee height: 707 km
right ascension of ascending node: 358.5953°
argument of perigee: 135.6826°
revolutions per day: 14.57575451
mean anomaly at epoch: 224.5067°
orbit number at epoch: 77445

The dashed part of the orbit path shows where the satellite is in the earth's shadow,  

DLR